Weather in Pii

Ukraine / Kyiv Region     49˚52′08″N   31˚07′30″E
temp.,
°C
wind,
m/s
gust,
m/s
humid.,
%
clouds,
%
prec.,
mm/h
press.,
hPa
HPBL,
m
17 january, sun
sun1723:00−15˚w25900 0.0 1018198
02:00−16˚wnw23910 0.0 1017123
05:00−16˚wnw23920 0.0 101795
08:00−16˚nw12920 0.0 101637
11:00−13˚wnw22770 0.0 1017401
14:00−12˚nnw127230 0.0 1016613
17:00−14˚nnw238694 0.0 101668
20:00−14˚nnw229258 0.0 101647
18 january, mon
mon1823:00−14˚nnw129379 0.0 101829
02:00−15˚nw239378 0.0 101866
05:00−15˚nnw239468 0.0 1018101
08:00−14˚nnw249384 0.1 1019273
11:00−12˚nnw3383100 0.0 1019490
14:00−12˚nw3480100 0.1 1019656
17:00−12˚nw3589100 0.1 1019476
20:00−13˚nw3591100 0.1 1020307
19 january, tue
tue1923:00−14˚wnw3590100 0.0 1020308
02:00−14˚wnw249199 0.0 1020256
05:00−14˚wnw358996 0.1 1020415
08:00−15˚wnw359276 0.1 1021238
11:00−14˚wnw338250 0.0 1021375
14:00−12˚wnw347970 0.0 1020490
17:00−14˚w228978 0.0 102133
20:00−14˚w229170 0.0 102222
20 january, wed
wed2023:00−14˚sw11926 0.0 102220
02:00−14˚sw22903 0.0 102322
05:00−14˚s22890 0.0 102222
08:00−14˚sse33890 0.0 102355
11:00−10˚sse46800 0.0 1024252
14:00−7˚sse47791 0.0 1023354
17:00−9˚sse478944 0.0 1023139
20:00−9˚sse4109333 0.0 1023242
21 january, thu
thu2123:00−9˚s4129545 0.0 1023285
02:00−5˚s5119572 0.1 1022443
05:00−4˚ssw61195100 0.1 1021478
08:00−3˚s51194100 0.1 1021405
11:00ssw61191100 0.0 1021464
14:00ssw599199 0.0 1020433
17:00−1˚ssw599495 0.0 1019327
20:00−1˚ssw4109589 0.0 1019246